Location: Battery Park City
(40.7115°N, 74.0163°W)
Time: 04:33:29
(UTC+00:00)

Cosmos 1092 Rocket - Pass Details

Date: 08 December 2019
Orbit: 953 x 996 km, 83.0° (Epoch: 22 January)

Event Time Altitude Azimuth Distance (km) Brightness Sun altitude
Rises 23:00:38 0° 186° (S) 3,695 7.3 -16.9°
Reaches altitude 10° 23:03:09 10° 187° (S) 2,747 6.6 -17.4°
Maximum altitude 23:09:28 86° 276° (W) 995 4.0 -18.5°
Drops below altitude 10° 23:15:47 10° 7° (N) 2,741 6.2 -19.7°
Sets 23:18:18 0° 7° (N) 3,687 6.8 -20.1°
